Weather in Staritsa

Russia / Tomsk District     58°07′55″N   80°34′32″E
temp.,
°C
wind,
m/s
gust,
m/s
humid.,
%
clouds,
%
prec.,
mm/h
press.,
hPa
HPBL,
m
24 october, sun
sun2401:00+7sw51390100 0.3 1003801
04:00+7sw61489100 0.3 10021078
07:00+8sw6138263 0.8 10031146
10:00+7wsw6147485 0.3 10051268
13:00+7w6127229 0.7 10081360
16:00+7wsw511695 0.1 10101442
19:00+5wsw411775 0.1 1013574
22:00+4sw3108869 0.0 1014403
25 october, mon
mon2501:00+4ssw3994100 0.0 1013294
04:00+5s31095100 0.2 1010358
07:00+6sse41494100 1.6 1005788
10:00+8sw61487100 1.3 10021060
13:00+8wsw81669100 1.3 10021812
16:00+7wsw81669100 0.2 10051983
19:00+4wnw6118173 0.4 10111067
22:00+3wnw3675100 0.0 1015802
26 october, tue
tue2601:00+2ssw1179100 0.0 101534
04:00+2se2685100 0.0 1014332
07:00+2se41088100 0.0 1011442
10:00+2sse41097100 1.4 1006448
13:00+2sse41297100 5.1 1001772
16:00+5sw3997100 2.9 9971047
19:00+3w51097100 6.9 997791
22:00+1wsw61295100 0.2 9991069
27 october, wed
wed2701:00−1w71479100 0.7 10041388
04:00−2w71576100 0.1 10081454
07:00−2w7147499 0.1 10131188
10:00−2wsw5117698 0.0 10161034
13:00−1wsw596771 0.1 10171395
16:00−1wsw5968100 0.4 10181314
19:00−2wsw497354 0.5 1020743
22:00−3w49765 0.0 1022610
28 october, thu
thu2801:00−3wsw38795 0.0 1023420
04:00−4sw38825 0.0 1024307
07:00−4ssw278196 0.0 1025300
10:00−3s397792 0.0 1024406
13:000s41072100 0.0 1023881
16:00+1s51270100 0.0 10201056
19:000s61481100 0.1 1018973
22:00+1ssw71561100 0.0 1015992